EDT,Max TemperatureF,Mean TemperatureF,Min TemperatureF,Max Dew PointF,MeanDew PointF,Min DewpointF,Max Humidity, Mean Humidity, Min Humidity, Max Sea Level PressureIn, Mean Sea Level PressureIn, Min Sea Level PressureIn, Max VisibilityMiles, Mean VisibilityMiles, Min VisibilityMiles, Max Wind SpeedMPH, Mean Wind SpeedMPH, Max Gust SpeedMPH,PrecipitationIn, CloudCover, Events, WindDirDegrees
2013-10-1,89,83,76,76,74,73,74,69,63,30.02,29.97,29.93,10,9,2,15,9,25,0.21,3,Rain-Thunderstorm,101
2013-10-2,88,82,76,79,76,73,80,74,68,30.01,29.98,29.94,10,9,0,10,6,17,0.54,3,Fog-Rain-Thunderstorm,96
2013-10-3,89,85,81,76,75,73,79,72,64,30.03,29.99,29.93,10,10,10,16,8,21,0.00,1,,96
2013-10-4,89,85,81,75,73,66,100,80,59,30.09,30.00,29.97,10,10,0,13,7,18,0.01,2,Fog,82
2013-10-5,88,84,80,74,71,69,74,68,61,30.02,29.97,29.93,10,10,10,13,7,15,0.00,0,,64
2013-10-6,89,83,76,73,71,69,82,69,55,29.97,29.92,29.89,10,10,10,8,2,10,0.00,1,,97
2013-10-7,90,85,80,75,74,72,79,71,63,29.93,29.89,29.85,10,10,8,12,5,18,0.00,1,,229
2013-10-8,91,84,77,79,75,73,85,75,64,29.96,29.91,29.87,10,9,2,15,5,22,0.04,3,Rain,261
2013-10-9,86,81,76,73,71,64,87,71,55,30.00,29.96,29.93,10,10,10,7,3,10,0.00,1,Thunderstorm,320
2013-10-10,88,83,77,75,74,72,88,75,61,30.02,29.97,29.94,10,9,2,15,8,18,0.28,3,Rain-Thunderstorm,45
2013-10-11,87,83,78,73,70,67,79,66,53,30.01,29.96,29.93,10,10,10,15,10,20,0.00,0,,62
2013-10-12,86,83,79,68,66,63,67,56,45,30.03,29.99,29.95,10,10,10,14,8,16,0.00,0,,66
2013-10-13,87,83,78,69,66,65,67,59,51,30.04,30.00,29.96,10,10,10,15,8,20,0.00,2,,66
2013-10-14,86,82,78,70,66,64,74,61,48,30.01,29.95,29.90,10,10,10,17,10,21,0.00,0,,52
2013-10-15,85,81,77,71,68,65,74,65,55,29.96,29.92,29.88,10,10,10,13,6,18,0.00,0,,38
2013-10-16,87,82,76,72,70,61,79,60,40,29.95,29.92,29.88,10,10,10,10,6,14,T,3,Rain,35
2013-10-17,87,82,76,73,72,70,88,75,61,29.97,29.92,29.89,10,10,9,12,6,15,T,6,,67
2013-10-18,89,84,78,75,73,70,79,71,63,29.97,29.93,29.89,10,10,10,14,8,18,0.00,2,,71
2013-10-19,91,86,80,76,74,73,79,72,64,29.96,29.92,29.89,10,10,10,9,6,16,0.00,2,,127
2013-10-20,90,86,81,77,75,74,85,77,68,29.97,29.92,29.88,10,10,7,8,4,14,T,3,,166
2013-10-21,90,86,81,76,75,73,79,71,63,30.01,29.96,29.92,10,10,10,9,4,14,0.00,0,,147
2013-10-22,91,86,81,76,75,73,85,74,63,29.96,29.91,29.86,10,10,10,9,4,13,0.00,0,,151
2013-10-23,89,85,80,76,74,72,79,71,63,29.96,29.89,29.84,10,10,10,14,6,20,T,3,Rain,285
2013-10-24,84,81,77,74,70,67,85,73,61,30.07,29.99,29.92,10,10,10,22,14,32,0.04,4,Rain,36
2013-10-25,84,80,75,67,66,63,74,64,54,30.13,30.09,30.04,10,10,10,23,15,30,0.00,0,,35
2013-10-26,84,79,73,68,66,63,79,65,51,30.12,30.08,30.04,10,10,10,21,13,25,0.00,0,,43
2013-10-27,84,79,74,69,65,62,79,67,54,30.08,30.04,30.01,10,10,10,17,13,22,0.00,1,,48
2013-10-28,85,81,76,70,67,64,76,64,51,30.12,30.07,30.03,10,10,10,16,11,20,0.00,0,,55
2013-10-29,86,81,75,70,68,66,87,71,55,30.15,30.11,30.07,10,10,10,20,13,25,T,0,,49
2013-10-30,87,82,77,72,67,65,79,65,51,30.15,30.10,30.06,10,10,10,20,12,25,0.00,1,,65
2013-10-31,87,83,79,71,69,67,74,66,57,30.10,30.04,29.99,10,10,10,14,8,20,0.00,1,,101